星链-2045 (STARLINK-2045 )

导读 | 豆包AI

STARLINK-2045是美国太空探索技术公司(SpaceX)星链(Starlink)星座的成员,于2021年1月20日发射升空,属于星链项目第二批组网卫星。星链旨在构建全球卫星互联网星座,为全球提供低时延、高速的宽带接入服务,该卫星进入近地轨道后,承担网络通信传输任务,助力星链星座全球覆盖能力的完善,推动卫星互联网基础设施建设,目前仍在预定轨道运行。

基本信息
目录编号:
47353
目录名称:
STARLINK-2045
国际标识:
2021-005E
轨道中心:
EARTH
卫星名称:
星链-2045
卫星全名:
星链-2045 (STARLINK-2045 )
卫星状态:
在轨 (已飞行1879 天)
发射日期:
2021-01-20 UTC
国别 :
美国 (US)
星等 :
--
轨道信息
数据来源 国际轨道数据
星历时间: 2026-03-14T06:13:23+0800
13小时前
查看轨道信息
半长轴: 6853.382km
偏心率: 0.0001085
轨道倾角: 53.163°
近地点辐角 63.174°
升交点赤经 340.984°
平近点角 296.937°
近地点: 474.501km
远地点: 475.989km
周期: 94.106分钟
每日圈数: 15.301902
详细信息
固有亮度:
5
最大亮度:
2.5
卫星平台:
Starlink V1.0
覆盖范围:
全球
运营商:
太空探索技术公司
运营商所在国:
美国
制造商(研发单位):
太空探索技术公司
制造商所在国:
美国
使用方式:
暂无
卫星简介
星链(Starlink)计划是由太空探索技术公司(SpaceX)提出的一个巨型低轨卫星互联网星座项目,计划在2019年至2024年间在太空搭建由约1.2万颗卫星组成的“星链”网络,其中1584颗将部署在地球上空550千米处的近地轨道,并从2020年开始工作。该卫星仍在工作。
2D轨道图
3D轨道图
轨道高度分析图
轨道倾角分析图
轨道综合分析图
查看轨道综合分析图